Temperature
15 14 14 14 14 14 14 14 15 15 16 16 17 17 17 17 17 17 17 18 18 18 17 17 17 17 17 17 17 17 17 17 17 18 18 18 18 18 18 18 18 18 17
14 14 14 13 13 13 13 14 14 14 15 15 16 16 16 16 17 17 17 17 17 17 17 17 17 17 17 17 17 17 17 17 17 17 17 18 18 17 18 18 17 18 17
14 13 13 13 13 13 13 13 13 14 14 15 15 15 15 16 16 16 16 17 17 17 17 17 17 17 17 17 17 17 17 16 17 17 17 17 18 18 18 18 18 17 18
13 13 12 12 12 12 12 12 13 13 14 14 14 15 15 15 15 15 16 16 16 16 17 17 17 16 16 16 16 16 16 16 16 17 17 17 17 17 18 17 18 18 17
13 12 12 12 12 12 12 12 12 13 13 14 14 14 14 15 15 15 15 16 16 16 16 16 16 16 16 16 16 16 16 16 16 16 16 16 16 17 17 17 17 17 17
12 12 11 11 12 12 12 12 12 13 13 13 13 14 14 14 14 15 15 15 15 16 16 16 16 16 16 16 16 16 16 16 16 16 16 16 16 16 16 16 16 17 17
12 12 11 11 11 11 12 12 12 12 13 13 13 13 13 14 14 14 15 15 15 15 15 15 15 16 16 16 16 16 16 16 16 16 15 15 15 16 16 16 16 16 16
12 11 11 11 11 11 12 12 12 12 12 12 13 13 13 13 14 14 14 14 15 15 15 15 15 15 15 15 15 15 15 15 15 15 15 15 15 15 15 15 15 15 15
12 12 11 11 11 11 11 12 12 12 12 12 12 12 13 13 13 14 14 14 14 14 14 14 15 15 15 15 15 15 15 15 15 15 15 15 15 15 15 15 15 14 15
12 12 11 11 11 11 11 11 12 12 12 12 12 12 12 13 13 13 13 14 14 14 14 14 14 14 14 14 14 14 14 14 15 15 14 14 14 14 14 14 14 14 14
12 12 12 11 11 11 11 11 11 11 12 12 12 12 12 13 13 13 13 13 13 13 14 14 14 14 14 14 14 14 14 14 14 14 14 14 14 14 14 14 14 14 14
13 12 12 12 11 11 11 11 11 11 12 12 12 12 12 12 13 13 13 13 13 13 13 13 13 13 13 13 14 14 14 14 14 14 14 14 14 14 14 14 14 14 13
13 13 12 12 11 11 11 11 11 11 11 11 12 12 12 12 12 12 12 13 13 13 13 13 13 13 13 13 13 13 13 13 13 13 13 13 13 13 13 13 13 13 13
13 13 12 12 12 12 11 11 11 11 11 11 11 11 11 11 12 12 12 12 12 12 12 12 13 13 13 13 13 13 13 13 13 13 13 13 13 13 13 13 13 13 13
14 13 13 12 12 12 12 11 11 11 11 11 11 11 11 11 11 11 11 12 12 12 12 12 12 12 12 12 12 12 13 13 13 13 13 13 13 13 13 13 13 13 13
14 13 13 13 12 12 12 11 11 11 11 11 11 11 11 11 11 11 11 11 12 12 12 12 12 12 12 12 12 12 12 12 12 12 13 13 13 13 13 13 13 13 13
14 14 13 13 13 12 12 11 11 11 11 10 10 10 10 11 10 11 11 11 11 11 11 11 11 11 12 12 12 12 12 12 12 12 12 12 13 13 13 13 13 13 14
14 14 13 13 13 12 12 11 11 11 11 10 10 10 10 10 10 11 11 10 10 11 11 11 11 11 11 11 12 12 11 11 12 12 12 12 12 13 13 13 13 13 13
14 14 13 13 13 12 12 12 12 11 11 10 10 10 10 10 10 10 10 10 10 10 10 10 10 10 11 11 11 11 11 11 11 11 12 12 12 12 12 12 12 13 13
14 14 13 13 13 13 12 12 12 11 11 10 10 10 10 10 10 10 10 10 10 10 9 10 10 10 10 10 11 11 11 11 11 11 11 12 12 12 12 12 12 12 12
14 14 13 13 13 13 12 12 12 11 11 11 10 10 10 10 10 10 10 9 9 9 9 9 9 9 10 10 10 10 10 10 11 11 11 11 12 12 12 12 12 12 12
14 14 14 13 13 13 13 12 12 11 11 11 11 10 10 10 10 10 10 9 9 9 9 9 9 9 9 10 10 10 10 10 10 11 11 11 11 12 12 12 12 12 12
14 14 14 13 13 13 13 12 12 11 11 11 11 10 10 10 10 10 9 9 9 9 9 9 9 9 9 9 10 10 10 10 10 11 11 11 11 11 11 12 12 11 11
14 14 14 14 13 13 13 12 12 12 11 11 10 10 10 10 10 10 9 9 9 9 9 9 9 9 9 9 9 9 10 10 10 10 10 11 11 11 11 11 11 11 11
15 15 14 14 14 13 13 13 12 12 11 11 11 10 10 10 10 10 10 9 9 9 9 9 8 9 9 9 10 10 10 10 10 10 10 10 10 10 10 10 11 10 10
15 15 14 14 14 13 13 13 13 12 12 11 11 11 10 10 10 10 9 9 9 9 9 9 9 9 9 10 10 10 10 10 10 10 10 10 10 10 10 10 10 10 10
Wind_Speed
15 14 14 13 13 12 12 11 10 10 8 7 6 5 5 5 6 7 10 11 11 11 9 8 9 8 8 9 10 9 10 9 8 8 7 8 9 9 7 8 7 8 7
17 16 16 15 14 13 12 12 11 10 9 7 7 6 6 6 7 7 9 12 12 12 10 10 9 9 8 9 9 9 8 8 8 8 7 7 8 8 10 9 8 9 8
17 18 17 17 15 14 13 11 11 11 9 9 7 6 6 5 6 7 8 10 12 12 12 11 10 9 9 9 10 10 10 8 8 8 6 6 7 6 8 11 10 10 8
17 16 16 16 16 14 13 12 11 10 9 8 7 7 6 6 6 6 6 7 9 10 11 11 11 10 9 10 10 10 9 9 8 7 7 7 4 4 4 6 9 9 10
17 16 16 16 15 14 13 12 11 10 9 8 7 6 6 5 5 5 6 6 6 7 9 10 10 11 10 11 11 10 10 9 9 7 7 8 6 7 6 5 6 6 7
16 16 16 15 14 13 12 11 11 10 9 8 7 6 6 5 5 5 4 4 3 4 6 7 8 9 8 10 10 10 11 10 10 9 8 6 6 7 7 7 6 6 5
15 16 17 16 15 15 14 12 11 10 9 9 7 7 6 6 5 5 4 3 2 2 4 4 5 6 7 7 8 9 9 11 10 10 8 7 6 5 5 6 6 5 4
15 15 16 15 14 14 14 13 11 10 10 9 8 7 7 5 4 5 4 3 1 1 2 3 4 4 5 6 7 7 9 9 10 10 10 7 7 6 6 6 5 5 5
14 14 15 14 14 14 13 12 12 11 11 10 9 8 8 8 7 7 6 5 4 3 2 1 2 2 2 3 4 5 7 7 8 8 9 8 6 6 6 5 5 5 5
14 14 13 13 13 12 12 13 13 12 12 11 10 8 9 9 8 8 9 8 8 6 5 3 2 2 1 1 2 3 4 5 6 6 7 7 6 5 5 5 5 4 4
13 12 12 12 11 11 12 12 13 13 12 12 11 11 10 10 10 10 10 9 8 8 7 6 5 4 3 1 0 1 3 4 3 4 5 7 7 6 5 5 5 5 4
11 11 11 11 11 12 12 13 13 13 12 12 12 12 12 12 12 11 10 10 9 9 8 8 7 7 6 5 3 2 1 2 3 3 4 4 4 4 4 4 5 4 4
11 10 11 11 11 11 11 12 12 12 12 12 12 12 13 13 12 11 11 11 10 10 9 9 8 8 7 6 5 4 2 1 1 2 3 4 4 4 4 4 4 4 4
9 10 10 10 10 10 11 11 11 11 11 11 11 12 12 12 11 11 11 11 11 10 10 9 9 8 8 7 6 5 4 3 2 2 1 2 3 3 4 4 4 4 4
9 10 10 9 9 10 10 10 10 10 10 11 11 11 11 11 11 11 11 11 11 11 10 10 10 9 8 9 8 5 5 5 4 4 4 4 5 5 2 1 3 4 4
8 8 9 8 8 9 9 10 10 10 10 10 11 10 11 11 11 11 11 11 11 11 11 11 11 11 9 11 11 7 5 5 5 5 5 4 4 5 4 4 4 2 2
7 7 7 7 7 8 8 9 9 9 9 10 10 10 11 11 11 11 11 11 11 11 11 11 10 11 12 12 11 9 5 6 6 5 4 4 4 3 4 6 7 7 7
5 6 6 6 6 6 6 7 7 8 9 9 10 10 10 10 10 11 11 10 10 10 10 10 10 10 12 14 11 7 6 6 6 5 5 3 3 3 3 5 6 7 7
4 5 5 4 4 5 5 6 7 7 8 9 9 9 9 10 10 10 10 9 9 9 9 9 10 10 11 15 13 8 5 5 6 6 6 4 4 4 2 5 7 8 8
3 3 3 3 3 4 4 4 6 7 7 7 8 8 8 9 9 10 9 8 7 8 8 9 9 10 11 14 14 11 5 5 5 5 6 8 7 5 3 4 6 7 7
2 2 2 2 3 3 3 4 6 6 6 5 6 7 7 8 8 8 8 8 8 8 8 8 8 9 10 12 14 13 6 5 5 5 5 6 8 7 5 3 5 6 6
0 1 1 1 1 1 2 3 4 4 4 4 5 6 6 7 7 8 8 8 8 8 8 8 8 8 9 10 11 12 11 8 6 5 5 6 8 9 7 6 8 6 4
0 0 0 0 1 1 1 2 3 3 3 3 4 4 5 5 6 7 7 7 8 7 7 7 7 7 7 8 9 9 10 9 6 6 8 8 7 7 9 10 6 4 4
1 1 1 1 1 1 1 1 3 3 3 2 2 2 3 4 5 5 6 6 7 7 7 7 7 7 7 9 8 6 5 5 6 6 8 8 9 8 8 6 5 5 5
3 2 2 1 1 1 1 2 3 4 3 2 2 1 2 2 3 4 4 5 6 6 6 6 7 7 7 9 10 8 6 6 5 4 5 6 6 6 6 6 6 5 5
4 3 3 3 2 2 2 3 3 4 3 2 1 1 0 1 2 2 2 2 1 3 4 6 7 6 7 7 8 9 9 9 6 4 6 6 6 6 6 5 5 5 5
Wind_Direction
352 352 348 344 341 338 335 332 328 328 326 318 311 301 284 267 252 242 240 239 240 239 236 235 233 226 220 220 220 219 218 220 222 225 223 222 226 228 213 224 223 219 210
351 351 347 344 341 337 333 328 327 326 324 314 301 287 289 277 259 248 241 236 233 230 229 227 226 223 220 221 218 213 219 215 214 218 222 228 222 223 227 222 228 231 209
348 347 345 342 340 337 333 329 327 324 323 318 305 296 284 273 261 250 243 236 234 230 226 227 226 225 220 219 217 208 212 213 214 221 215 220 229 218 216 221 222 229 229
348 345 343 342 340 338 334 329 327 326 327 323 309 303 293 285 278 270 255 242 236 233 227 224 222 222 220 220 217 209 210 213 213 217 227 237 247 223 218 216 225 226 227
349 346 344 341 339 339 337 332 330 331 333 330 318 305 299 295 290 282 264 253 240 235 229 222 220 221 220 220 213 205 207 211 214 211 213 225 239 243 241 232 219 216 225
352 351 349 346 345 345 343 339 337 339 342 340 336 331 322 317 313 301 280 261 246 234 227 223 219 219 218 217 212 208 211 214 217 215 214 211 215 226 233 238 236 232 222
355 355 353 352 352 351 351 350 348 346 350 352 355 355 352 343 338 328 312 296 260 230 213 207 205 208 210 212 213 212 213 214 215 215 215 216 221 220 223 235 241 242 236
357 356 354 354 354 354 358 358 356 355 358 1 3 9 12 4 1 356 353 351 327 260 189 186 186 194 207 215 218 217 216 215 214 216 214 213 217 218 218 226 226 234 233
1 358 358 360 359 0 3 3 4 7 6 7 11 16 16 19 23 24 26 27 31 35 64 128 154 164 186 210 216 218 219 216 215 217 216 216 214 212 216 217 218 226 232
1 1 1 1 3 4 9 14 17 16 17 18 19 21 23 30 35 35 34 34 33 35 48 61 74 97 122 176 198 205 213 214 216 213 213 210 206 203 204 207 209 216 226
0 3 5 6 10 13 16 19 20 20 19 20 22 25 26 29 35 36 34 34 37 41 45 48 54 57 60 75 127 215 204 204 202 206 207 207 198 191 191 196 200 205 206
5 8 11 12 16 18 20 22 22 22 22 23 26 29 30 35 36 34 33 35 38 41 47 51 54 53 50 48 47 42 168 193 194 198 190 182 180 183 184 187 193 198 197
11 14 15 15 16 18 20 22 22 22 24 26 29 32 33 34 34 32 32 34 36 38 41 44 46 46 44 44 43 46 54 77 170 192 188 176 175 180 181 186 190 193 194
11 13 15 18 19 21 22 24 25 24 25 28 30 33 34 34 35 35 36 38 37 38 38 41 42 41 41 36 34 41 48 62 71 90 136 151 162 171 177 184 187 181 180
13 13 15 18 20 22 22 24 25 26 27 32 33 32 34 36 38 39 39 41 39 38 38 41 43 41 39 32 24 32 47 60 67 70 75 74 69 60 77 172 184 178 174
10 10 14 17 19 23 24 25 25 26 30 35 35 33 33 34 36 37 38 39 38 37 38 39 40 40 37 32 27 19 49 60 71 70 70 84 84 86 91 74 66 57 175
4 6 11 16 17 21 23 26 26 28 33 37 36 33 34 34 34 35 36 36 38 39 38 37 36 38 34 30 31 22 46 59 59 65 75 78 78 98 115 118 122 90 60
357 0 4 13 18 23 25 29 33 35 39 38 36 32 31 34 34 35 35 32 35 38 37 35 35 35 33 26 26 14 51 64 61 57 58 70 85 80 108 122 111 97 80
343 348 351 360 15 23 20 27 40 43 43 38 34 33 33 33 31 32 31 30 31 35 37 36 33 32 31 25 19 5 60 64 63 59 54 46 84 75 47 126 117 107 93
341 346 346 358 26 31 23 29 41 45 45 40 38 37 36 32 30 29 26 29 32 32 36 40 36 34 32 27 21 8 53 64 66 63 63 51 49 55 15 131 128 120 115
346 339 348 24 30 27 25 39 47 52 52 49 47 43 40 38 33 29 28 29 34 35 36 42 40 38 33 31 29 20 35 54 64 64 59 55 49 52 42 56 112 117 125
359 344 355 55 49 21 23 56 60 67 72 69 61 52 43 38 36 35 32 33 32 36 36 37 38 33 35 34 33 35 34 26 61 57 57 63 60 63 57 73 89 101 120
201 314 322 129 105 76 22 58 95 115 112 94 76 63 56 46 38 36 35 35 34 33 33 32 30 28 28 35 41 46 45 34 56 66 64 65 63 84 81 78 85 109 111
201 223 217 188 119 99 99 86 135 161 157 123 97 77 58 51 47 37 33 33 30 28 28 27 24 24 30 23 14 22 51 76 78 85 90 89 73 78 84 91 83 80 82
198 211 213 186 156 152 152 154 172 187 186 161 143 112 65 40 33 44 35 30 43 29 13 16 16 17 22 19 9 12 27 35 46 70 87 82 83 82 81 79 76 79 91
198 200 197 200 191 178 168 168 187 204 212 199 185 183 174 6 359 12 74 126 38 51 28 18 8 44 39 22 28 36 38 31 12 63 81 76 73 74 77 83 83 79 79
Height
1563 1559 1555 1552 1548 1545 1542 1539 1536 1534 1532 1530 1528 1527 1526 1526 1526 1527 1528 1530 1531 1532 1534 1536 1538 1541 1543 1545 1547 1549 1551 1553 1556 1558 1559 1560 1561 1563 1563 1564 1566 1567 1567
1561 1557 1554 1550 1546 1542 1539 1536 1533 1531 1528 1526 1524 1523 1522 1522 1522 1522 1522 1524 1526 1527 1529 1531 1533 1535 1537 1540 1542 1544 1547 1549 1552 1554 1556 1557 1559 1558 1560 1561 1562 1564 1565
1561 1556 1552 1548 1544 1540 1536 1533 1530 1527 1525 1523 1521 1519 1518 1517 1518 1518 1518 1519 1520 1522 1523 1525 1527 1530 1532 1534 1536 1539 1541 1544 1547 1549 1552 1553 1554 1555 1556 1557 1559 1560 1561
1560 1556 1551 1546 1542 1538 1534 1531 1528 1525 1522 1520 1518 1516 1515 1514 1514 1514 1514 1514 1515 1516 1518 1520 1522 1525 1527 1529 1531 1533 1536 1540 1542 1544 1547 1549 1550 1552 1552 1554 1555 1556 1558
1560 1555 1550 1545 1541 1536 1532 1528 1525 1522 1519 1517 1515 1513 1512 1511 1511 1510 1510 1510 1511 1512 1513 1515 1517 1520 1522 1523 1526 1529 1532 1535 1537 1539 1542 1544 1546 1547 1549 1550 1551 1552 1554
1560 1555 1550 1544 1539 1535 1530 1526 1523 1520 1518 1515 1513 1511 1510 1509 1508 1507 1507 1507 1507 1508 1509 1511 1513 1515 1517 1519 1521 1524 1526 1529 1532 1534 1536 1538 1541 1542 1545 1546 1547 1549 1550
1560 1555 1549 1544 1539 1534 1530 1526 1522 1519 1517 1514 1512 1510 1509 1507 1506 1505 1505 1505 1505 1506 1507 1508 1509 1511 1513 1515 1517 1519 1521 1523 1526 1528 1531 1533 1536 1538 1540 1542 1543 1544 1546
1561 1556 1550 1545 1539 1534 1530 1526 1522 1519 1517 1514 1512 1510 1508 1507 1506 1505 1504 1503 1504 1504 1505 1506 1507 1509 1510 1512 1513 1515 1517 1519 1521 1523 1526 1528 1530 1533 1535 1537 1539 1540 1541
1562 1557 1552 1547 1541 1536 1532 1527 1524 1521 1518 1515 1513 1511 1509 1508 1506 1505 1504 1503 1503 1503 1504 1505 1506 1507 1508 1509 1510 1512 1514 1515 1517 1519 1521 1523 1525 1528 1530 1531 1534 1536 1537
1563 1558 1553 1548 1544 1539 1534 1530 1526 1523 1520 1517 1515 1513 1511 1509 1508 1507 1505 1504 1504 1504 1504 1505 1505 1506 1507 1507 1508 1509 1511 1512 1513 1514 1516 1518 1520 1523 1525 1527 1529 1531 1533
1564 1559 1555 1550 1546 1542 1537 1534 1530 1526 1522 1519 1517 1515 1513 1512 1510 1508 1507 1506 1506 1505 1505 1505 1506 1506 1506 1507 1507 1508 1509 1510 1511 1512 1513 1515 1517 1519 1521 1523 1525 1527 1529
1565 1561 1557 1553 1549 1545 1541 1537 1533 1530 1526 1523 1521 1518 1516 1514 1512 1511 1510 1509 1508 1507 1507 1507 1507 1507 1507 1507 1506 1506 1507 1508 1509 1510 1511 1513 1514 1516 1518 1520 1522 1524 1526
1566 1563 1559 1555 1551 1548 1544 1541 1537 1534 1531 1528 1525 1522 1520 1517 1516 1514 1513 1511 1510 1510 1509 1509 1508 1508 1507 1507 1507 1506 1506 1507 1508 1509 1510 1512 1513 1515 1517 1519 1520 1522 1524
1567 1564 1561 1557 1554 1551 1548 1544 1541 1538 1534 1531 1529 1526 1523 1521 1520 1518 1516 1514 1513 1512 1511 1511 1510 1509 1508 1508 1507 1507 1506 1506 1507 1508 1509 1511 1512 1514 1516 1518 1519 1521 1523
1568 1566 1563 1560 1557 1553 1550 1547 1544 1541 1538 1535 1533 1530 1528 1525 1523 1521 1519 1517 1515 1514 1513 1512 1511 1510 1510 1509 1508 1508 1508 1507 1508 1508 1509 1510 1512 1513 1515 1517 1519 1520 1522
1569 1567 1564 1561 1559 1556 1553 1550 1547 1544 1542 1539 1536 1533 1531 1529 1526 1524 1522 1520 1518 1516 1515 1514 1513 1512 1511 1510 1509 1509 1509 1509 1509 1509 1510 1511 1512 1514 1515 1516 1518 1520 1522
1569 1567 1565 1563 1560 1558 1555 1552 1550 1547 1545 1542 1539 1537 1534 1532 1529 1527 1525 1523 1521 1519 1517 1516 1515 1513 1512 1511 1511 1510 1510 1509 1509 1510 1511 1512 1513 1515 1516 1518 1519 1520 1522
1569 1568 1566 1564 1562 1559 1557 1554 1552 1550 1547 1545 1542 1540 1538 1535 1533 1530 1528 1526 1524 1522 1520 1518 1517 1515 1514 1513 1512 1511 1511 1510 1510 1511 1512 1513 1514 1515 1517 1519 1520 1521 1522
1569 1568 1566 1564 1562 1560 1558 1557 1554 1552 1550 1547 1545 1543 1541 1538 1536 1533 1531 1528 1527 1525 1523 1521 1519 1518 1516 1514 1513 1512 1512 1512 1512 1512 1513 1514 1515 1516 1517 1519 1520 1521 1523
1569 1567 1566 1565 1563 1561 1559 1558 1556 1554 1552 1550 1548 1546 1543 1541 1539 1536 1534 1531 1529 1527 1526 1524 1522 1520 1518 1516 1515 1513 1513 1513 1513 1513 1514 1514 1515 1517 1518 1520 1522 1523 1524
1568 1567 1566 1565 1563 1562 1561 1560 1558 1556 1554 1551 1550 1548 1546 1544 1541 1539 1536 1534 1532 1530 1528 1526 1525 1523 1520 1518 1517 1515 1515 1514 1515 1515 1515 1516 1517 1518 1519 1521 1522 1523 1525
1568 1567 1566 1565 1564 1562 1562 1561 1559 1557 1555 1553 1552 1550 1548 1546 1544 1541 1539 1537 1535 1533 1531 1529 1527 1525 1523 1521 1519 1518 1517 1516 1516 1516 1517 1517 1518 1519 1521 1522 1523 1524 1526
1567 1566 1566 1565 1564 1563 1562 1561 1560 1558 1557 1555 1554 1552 1551 1548 1546 1544 1542 1540 1537 1535 1534 1532 1530 1528 1526 1524 1522 1521 1520 1519 1519 1518 1519 1519 1520 1521 1522 1523 1524 1526 1527
1566 1566 1565 1565 1564 1563 1562 1561 1560 1559 1558 1557 1556 1554 1553 1551 1549 1546 1544 1542 1540 1538 1536 1534 1533 1531 1529 1527 1525 1524 1523 1522 1522 1521 1521 1522 1522 1523 1524 1525 1526 1527 1528
1565 1565 1565 1564 1564 1563 1562 1561 1560 1559 1559 1558 1557 1556 1554 1553 1551 1549 1546 1544 1542 1540 1538 1536 1535 1533 1531 1530 1528 1526 1526 1525 1524 1524 1525 1525 1525 1526 1526 1527 1528 1529 1530
1564 1564 1563 1563 1563 1562 1562 1560 1560 1559 1559 1559 1558 1557 1555 1554 1552 1551 1549 1546 1544 1542 1540 1538 1536 1535 1533 1532 1530 1529 1528 1527 1527 1527 1527 1527 1527 1528 1528 1529 1530 1530 1531